[Iaude] MPEC G72: 2017 GO6 [a=2.62,e=0.59,i=25.7,H=19.1]

mpec at si.edu mpec at si.edu
Mon Apr 10 18:01:38 EDT 2017


M.P.E.C. 2017-G72                                Issued 2017 Apr. 10, 21:57 UT
 
     The Minor Planet Electronic Circulars contain information on unusual
         minor planets and routine data on comets.  They are published
    on behalf of Division F of the International Astronomical Union by the
          Minor Planet Center, Smithsonian Astrophysical Observatory,
                          Cambridge, MA 02138, U.S.A.

             Prepared using the Tamkin Foundation Computer Network

                              MPC at CFA.HARVARD.EDU
            URL http://www.minorplanetcenter.net/    ISSN 1523-6714


                                   2017 GO6
 
Observations:
     K17G06O* C2017 04 05.46350 14 23 38.706-10 11 36.68         21.0 iLEG072F51
     K17G06O  C2017 04 05.47452 14 23 37.379-10 11 42.47         20.9 iLEG072F51
     K17G06O  C2017 04 05.48553 14 23 36.040-10 11 48.12         21.0 iLEG072F51
     K17G06O |C2017 04 06.16212 14 22 16.26 -10 17 17.8          21.2 VuEG072807
     K17G06O |C2017 04 06.16679 14 22 15.68 -10 17 20.4          21.0 VuEG072807
     K17G06O |C2017 04 06.17159 14 22 15.13 -10 17 22.9          20.7 VuEG072807
     K17G06O KC2017 04 06.24200 14 22 06.85 -10 18 06.0                oEG072291
     K17G06O KC2017 04 06.24798 14 22 06.15 -10 18 08.7                oEG072291
     K17G06O KC2017 04 06.25398 14 22 05.41 -10 18 11.8          20.7 RoEG072291
     K17G06O |C2017 04 07.29500 14 20 01.12 -10 26 34.5          20.9 VuEG072807
     K17G06O |C2017 04 07.29968 14 20 00.58 -10 26 36.8          20.7 VuEG072807
     K17G06O |C2017 04 07.30447 14 19 59.98 -10 26 38.5          21.2 VuEG072807
     K17G06O KC2017 04 07.33580 14 19 56.51 -10 27 02.9          20.8 RoEG072291
     K17G06O KC2017 04 07.34478 14 19 55.42 -10 27 07.2          21.2 RoEG072291
     K17G06O KC2017 04 07.35376 14 19 54.31 -10 27 11.8          20.8 RoEG072291
     K17G06O |C2017 04 08.30836 14 18 00.06 -10 34 42.2          21.4 VuEG072807
     K17G06O |C2017 04 08.31401 14 17 59.38 -10 34 44.7          21.3 VuEG072807
     K17G06O |C2017 04 08.31981 14 17 58.68 -10 34 47.2          21.5 VuEG072807
     K17G06O KC2017 04 09.28036 14 16 03.78 -10 42 22.3          21.0 VuEG072807
     K17G06O KC2017 04 09.28955 14 16 02.64 -10 42 26.4          20.7 VuEG072807
     K17G06O KC2017 04 09.29580 14 16 01.89 -10 42 29.3          20.8 VuEG072807
 
Observer details:
291 LPL/Spacewatch II.  Observer R. S. McMillan.  1.8-m f/2.7 reflector + CCD.
807 Cerro Tololo.  Observers T. Linder, R. Holmes.  0.61-m f/6.5 astrograph
    + CCD.
F51 Pan-STARRS 1, Haleakala.  Observers B. Gibson, T. Goggia, S. Kahale,
    T. Lowe, A. Schultz, M. Willman.  Measurers K. Chambers, S. Chastel,
    L. Denneau, H. Flewelling, M. Huber, E. Lilly, E. Magnier, R. Wainscoat,
    C. Waters, R. Weryk.  1.8-m Ritchey-Chretien + CCD.
 
Orbital elements:
2017 GO6                                                 Earth MOID = 0.3256 AU
Epoch 2017 Feb. 16.0 TT = JDT 2457800.5                 MPC
M  22.60728              (2000.0)            P               Q
n   0.23269823     Peri.   74.04689     -0.19890430     -0.95544317
a   2.6178253      Node    30.23388     +0.64827509     -0.29516973
e   0.5854499      Incl.   25.66644     +0.73496699     +0.00178161
P   4.24           H   19.1           G   0.15           U   7
Residuals in seconds of arc
170405 F51  0.2-  0.2+    170406 291  0.3+  0.3+    170407 291  0.0   0.2-
170405 F51  0.0   0.0     170406 291  0.1+  0.2+    170408 807  0.4-  0.0
170405 F51  0.0   0.1-    170407 807  0.3-  0.4-    170408 807  0.2-  0.2+
170406 807  0.1+  0.2-    170407 807  0.2+  0.5-    170408 807  0.0   0.5+
170406 807  0.1-  0.5-    170407 807  0.0   0.1+    170409 807  0.1+  0.1-
170406 807  0.4+  0.6-    170407 291  0.0   0.0     170409 807  0.1-  0.0
170406 291  0.1-  0.0     170407 291  0.1+  0.1+    170409 807  0.2+  0.1+

Ephemeris:
2017 GO6                 a,e,i = 2.62, 0.59, 26                  q = 1.0852
Date    TT    R. A. (2000) Decl.     Delta      r     Elong.  Phase     V
2017 03 11    15 03 37.3 -06 02 00   0.9881  1.7531   124.4    27.9    21.5
...
2017 03 26    14 43 03.5 -08 36 55   0.9682  1.8678   143.7    18.4    21.3
...
2017 04 03    14 28 26.8 -09 50 31   0.9762  1.9285   154.8    12.7    21.2
...
2017 04 09    14 16 37.6 -10 40 13   0.9931  1.9736   163.4     8.4    21.1
2017 04 10    14 14 37.7 -10 48 00   0.9969  1.9811   164.8     7.6    21.1
2017 04 11    14 12 37.7 -10 55 38   1.0009  1.9885   166.2     6.9    21.1
...
2017 04 17    14 00 44.7 -11 38 18   1.0316  2.0332   174.8     2.6    21.0
...
2017 04 25    13 45 50.3 -12 27 11   1.0889  2.0921   174.1     2.8    21.2
...
2017 05 10    13 23 40.3 -13 40 38   1.2447  2.2004   154.8    11.3    22.0

A. U. Tomatic                (C) Copyright 2017 MPC           M.P.E.C. 2017-G72




More information about the Iaude mailing list